Location: Nairn
(57.5833°N, 3.8667°W)
Time: 01:34:38
(UTC+00:00)

Cosmos 2333 - Pass Details

Date: 07 August 2020
Orbit: 830 x 866 km, 70.9° (Epoch: 27 September)

Event Time Altitude Azimuth Distance (km) Brightness Sun altitude
Rises 23:57:45 0° 323° (NW) 3,461 8.4 -15.9°
Reaches altitude 10° 00:00:14 10° 321° (NW) 2,522 7.5 -15.9°
Maximum altitude 00:06:00 68° 240° (WSW) 937 4.3 -16.0°
Enters shadow 00:09:30 24° 163° (SSE) 1,706 5.2 -16.0°
